Theta_e
301 302 303 304 305 306 306 306 305 306 306 307 307 306 306 307 308 309 308 309 309 309 308 309 309 309 310 311 312 313 312 314 319 323 324 323 324 324 322 322 320 319 316 318 326 331 333 336 337 339 343 345 341 342 343 344 345 346 354 351 345 353 357 356 362 362 358 360 364 364 364 365 364 360 358 359 359 358 357 355 354 352 351 352 353 353 351 352
301 302 303 304 305 306 307 306 305 306 306 306 306 305 305 306 307 308 309 309 309 309 308 309 308 308 311 312 312 313 315 318 322 325 327 327 326 324 321 321 319 316 316 320 327 333 334 334 338 341 343 343 341 342 341 343 347 346 352 348 349 359 357 356 360 364 362 358 360 361 363 364 363 359 358 362 360 358 358 357 355 353 352 353 353 353 351 351
301 302 303 304 305 306 307 306 305 305 305 305 305 305 306 306 306 306 307 308 309 308 309 309 308 309 311 312 312 313 317 322 325 327 328 328 327 324 321 319 320 316 315 322 327 334 335 336 340 340 341 342 340 342 339 342 347 346 347 345 351 357 353 359 360 360 359 357 361 359 361 364 362 358 359 362 359 362 363 358 356 357 355 353 352 352 352 352
301 301 303 304 306 306 307 306 306 305 305 305 305 306 306 306 307 306 306 306 307 307 308 308 308 310 312 313 313 314 319 325 328 330 327 326 324 321 318 319 322 318 315 321 327 333 338 337 340 340 340 340 338 340 339 340 346 347 345 343 348 351 353 362 360 357 357 358 364 361 360 364 360 356 357 362 360 363 362 356 355 356 354 354 351 352 352 352
301 301 303 305 306 306 307 306 305 305 305 305 306 306 307 307 307 306 306 305 305 307 308 309 310 312 313 313 313 316 322 327 326 327 323 320 319 318 319 320 322 319 317 320 325 332 337 338 339 339 340 339 337 339 339 338 344 345 345 343 342 347 353 358 357 357 357 356 363 365 362 360 359 361 361 362 364 363 360 355 353 354 353 353 352 352 352 350
301 301 302 305 306 306 306 306 305 305 305 306 307 308 308 308 307 306 306 305 306 307 309 311 312 314 313 312 314 319 325 327 322 323 320 318 318 320 320 320 321 320 319 320 325 331 336 338 338 338 339 337 337 338 339 338 340 344 343 343 340 343 352 356 351 351 355 356 361 364 361 358 360 365 363 362 363 359 359 354 351 352 353 353 353 352 351 350
301 301 302 305 307 306 306 306 305 305 305 306 308 308 308 308 307 306 306 306 307 308 311 313 313 313 313 313 318 322 324 325 323 321 320 320 319 320 321 321 320 322 323 321 324 331 334 337 337 338 338 336 337 336 338 338 338 341 340 340 340 339 346 352 352 351 353 357 360 358 356 360 361 363 362 361 361 357 359 355 349 352 352 353 353 351 350 350
300 300 301 304 306 307 307 306 306 306 306 307 308 308 309 308 306 307 307 308 309 311 313 313 313 313 313 316 322 325 326 325 322 320 322 326 326 320 322 326 325 324 325 322 325 331 333 337 335 336 337 334 334 333 335 336 337 339 338 338 337 338 342 346 349 351 350 351 356 352 354 361 360 361 360 360 360 356 359 357 350 350 351 353 353 351 351 350
300 300 300 303 306 307 307 306 306 306 307 308 308 308 309 308 307 307 307 309 311 312 313 312 312 312 312 315 319 322 325 323 320 321 322 328 331 329 330 333 330 325 324 324 325 331 333 335 335 334 336 334 331 331 331 331 333 337 337 336 336 337 339 341 343 346 349 349 349 348 355 361 358 359 359 357 357 355 358 359 354 350 350 351 352 351 352 351
300 300 300 302 305 307 307 306 306 306 307 307 308 308 309 308 307 308 308 310 312 312 311 310 311 311 314 318 321 324 323 321 321 321 320 324 330 333 335 332 327 324 323 324 326 330 333 333 333 333 334 332 330 329 330 329 330 332 334 334 335 336 336 337 336 340 347 348 348 347 355 361 357 357 360 356 355 353 355 359 355 349 351 350 350 351 353 351
301 300 300 300 304 307 307 307 307 307 306 307 308 308 309 309 307 309 309 310 312 311 310 312 311 312 318 321 325 328 319 319 322 319 319 325 327 329 331 326 323 324 323 323 326 330 332 332 332 332 333 332 331 330 329 327 328 328 330 331 333 333 334 334 333 336 345 347 349 348 351 360 356 358 360 355 355 355 354 357 354 351 352 351 350 352 354 353
300 300 300 300 302 305 307 307 307 308 307 307 308 308 309 309 308 309 309 311 312 311 313 315 313 314 321 324 327 325 316 317 320 318 318 323 326 327 327 327 323 325 326 326 329 331 333 332 331 332 334 331 328 327 326 325 326 325 327 328 330 332 331 333 334 333 339 345 348 348 347 352 357 358 357 354 354 355 356 356 353 353 352 352 351 352 353 353
301 300 300 301 301 304 307 307 307 308 308 308 308 308 309 309 309 310 309 311 312 312 315 316 315 318 324 327 327 320 316 317 319 319 317 318 326 327 328 331 328 327 330 331 333 333 332 332 331 331 332 329 328 326 324 324 325 326 326 326 328 327 328 331 333 334 335 340 346 347 339 343 356 356 355 354 353 353 356 355 352 353 351 350 351 351 352 353
300 300 301 301 301 303 306 308 307 308 308 309 308 308 310 309 311 311 310 312 313 314 316 316 318 323 327 328 322 316 316 318 318 319 318 317 320 324 327 332 331 329 330 332 333 333 332 330 330 329 328 329 328 326 324 325 324 325 324 325 324 319 322 331 332 334 334 335 344 345 334 340 354 354 354 354 352 354 355 355 353 353 352 350 350 351 350 352
301 301 301 302 302 301 304 307 308 308 308 308 309 309 310 310 311 311 311 313 314 314 316 318 321 325 330 330 320 316 317 318 319 317 318 317 317 322 326 328 331 331 330 331 332 332 332 330 327 327 327 327 327 327 326 325 324 325 319 316 321 317 319 331 331 332 334 331 340 343 334 341 352 351 352 352 352 355 355 355 354 353 353 349 350 351 350 352
301 302 303 303 303 302 303 306 308 308 308 308 309 309 311 311 311 311 311 313 314 316 318 323 328 328 330 328 318 317 318 318 319 316 316 317 316 321 324 327 329 330 329 331 331 333 332 331 328 327 327 327 326 326 325 321 320 324 319 311 315 317 318 326 330 331 333 332 337 341 338 345 352 349 350 351 350 354 355 355 354 353 352 349 351 351 350 351
303 304 304 304 303 303 302 305 308 308 308 308 309 311 312 313 314 313 312 313 314 319 322 326 329 329 329 324 317 317 318 316 317 316 316 317 317 319 324 328 328 327 329 330 331 332 330 330 329 327 327 327 327 326 321 315 312 318 319 314 315 318 317 319 327 331 331 332 338 341 344 347 349 348 349 351 350 351 356 355 353 353 353 351 351 351 352 351
306 307 306 305 304 303 302 303 307 309 308 308 310 311 313 315 316 315 314 317 319 323 327 326 326 326 324 321 318 316 317 316 316 317 316 317 317 318 324 329 327 327 327 327 329 328 328 329 328 328 327 326 329 326 317 313 313 314 314 313 314 317 318 318 324 331 332 333 337 341 344 347 348 348 350 351 350 352 356 356 354 355 354 356 356 351 351 352
308 308 308 307 306 305 303 302 306 309 308 310 311 312 316 318 318 318 318 323 326 329 328 324 325 323 318 317 317 316 316 316 316 316 317 318 318 317 322 327 327 327 326 326 326 326 328 329 328 327 326 326 327 326 321 320 319 318 317 315 314 313 316 322 327 331 333 334 335 339 342 347 349 347 350 351 351 352 356 358 355 356 356 360 360 356 353 352
309 309 309 309 308 306 304 302 304 308 308 309 310 313 318 319 319 320 320 321 325 326 320 317 319 318 315 316 317 316 315 315 316 317 318 317 318 317 321 326 327 326 327 325 325 325 326 328 327 325 325 326 325 325 325 326 323 322 322 319 317 315 315 324 329 330 334 332 334 340 340 346 351 348 351 351 351 354 356 358 356 357 357 357 360 360 359 354
309 309 309 309 309 308 305 302 304 308 309 308 309 315 317 314 316 317 315 316 319 319 315 314 316 314 314 315 315 315 315 316 316 317 318 317 319 319 322 326 325 325 325 324 325 324 325 325 326 327 327 326 325 325 324 324 326 324 321 318 317 317 318 324 328 328 334 331 331 341 339 343 352 349 350 349 351 354 355 357 358 359 357 356 360 362 362 358
309 309 309 308 309 309 306 302 303 307 309 310 312 316 316 314 314 315 314 314 316 316 315 314 315 313 314 314 315 315 314 315 317 317 318 317 318 320 324 325 323 324 324 323 324 324 324 323 326 327 326 325 325 325 325 324 325 324 322 318 314 318 320 323 326 328 331 328 327 336 337 339 351 350 350 350 351 351 354 357 359 363 366 362 362 363 367 363
308 309 308 308 309 309 307 303 303 306 308 312 316 316 315 315 315 315 315 315 315 317 315 314 314 314 314 314 314 314 314 315 317 318 317 317 318 319 324 326 323 324 323 323 324 321 320 322 326 327 326 326 325 324 325 324 324 323 322 315 313 318 319 316 321 327 330 328 329 333 333 336 348 351 351 351 350 352 356 357 358 363 366 362 359 361 367 365
308 308 308 308 308 309 308 304 304 308 310 315 317 315 314 315 315 315 314 315 316 317 316 315 315 314 314 313 313 313 314 316 317 318 317 317 318 319 323 326 325 325 323 323 324 321 321 325 326 326 326 327 326 326 326 323 321 323 322 317 315 321 319 316 322 327 327 327 330 330 323 324 338 348 351 350 350 354 355 357 357 358 360 359 357 358 361 362
307 307 308 308 308 309 306 304 308 312 314 316 316 315 315 315 316 316 315 317 317 317 316 315 314 314 314 313 314 313 314 314 315 316 317 317 316 318 321 322 323 325 325 324 324 322 324 325 325 326 326 327 326 326 327 324 320 320 323 323 320 323 323 323 324 322 316 316 326 327 314 316 330 338 344 346 348 352 353 354 357 356 359 362 363 359 357 358
307 307 308 308 307 305 305 309 313 313 315 316 316 315 314 315 316 315 316 317 317 316 315 314 313 313 312 313 314 314 313 315 315 316 317 316 316 317 318 319 320 322 324 325 325 324 323 324 325 325 325 326 326 325 326 327 319 315 322 326 326 326 324 322 322 317 310 311 323 328 315 312 322 329 341 348 346 351 352 353 356 359 360 362 363 360 356 358
307 307 308 308 306 305 309 312 311 312 315 315 315 314 315 317 316 315 318 317 315 316 315 313 313 312 312 314 313 313 312 314 316 316 316 316 316 316 317 318 319 318 321 323 320 322 325 325 324 325 326 325 323 322 325 327 319 316 324 328 326 326 324 323 321 315 313 316 322 326 321 313 313 323 337 349 346 349 354 355 357 359 360 359 359 359 357 357
307 308 308 307 305 306 308 309 310 314 316 314 314 314 314 316 316 316 320 318 316 315 316 314 313 312 313 314 313 313 313 314 315 316 317 317 316 316 316 317 318 318 320 320 316 321 327 326 324 325 324 323 322 323 325 326 321 321 325 327 326 326 324 324 321 316 316 315 312 317 321 315 312 321 333 344 346 348 352 356 358 357 357 358 358 358 356 355
307 308 308 306 307 310 309 309 312 315 314 314 314 314 315 316 315 316 319 319 317 314 315 313 312 312 313 315 314 314 314 314 314 315 316 316 315 315 316 317 318 318 320 319 317 321 325 326 326 324 323 323 323 324 324 324 323 323 324 325 326 325 325 324 322 316 314 312 309 312 316 314 312 318 325 329 335 345 354 354 356 357 353 357 359 357 355 355
308 309 308 306 310 315 314 313 315 315 315 315 313 313 315 316 316 319 320 319 316 314 314 313 313 313 314 314 314 314 314 314 314 314 315 315 316 316 316 317 317 318 319 319 318 320 321 322 324 324 325 324 324 324 324 324 325 324 325 325 322 322 323 324 322 317 313 311 310 311 314 315 313 314 321 326 327 340 354 353 355 358 357 357 357 355 353 354
308 309 308 307 309 313 313 315 316 315 316 315 313 314 315 316 318 320 321 318 314 315 315 315 315 314 314 314 315 314 314 314 314 314 314 314 315 316 315 315 315 315 315 315 316 318 319 320 321 323 323 324 325 323 323 324 324 324 325 322 317 316 317 316 316 316 315 313 312 313 314 313 311 313 322 330 333 333 340 350 356 357 360 360 356 354 355 353
309 309 308 307 308 309 311 315 316 315 316 314 315 315 316 319 320 318 318 315 312 314 315 315 315 314 315 314 314 315 314 314 314 314 315 315 317 317 316 316 315 314 311 311 312 314 316 317 319 320 322 324 323 322 323 323 324 323 322 317 312 312 313 313 313 314 314 314 314 315 315 311 311 317 326 330 333 335 332 341 354 355 355 357 356 355 354 353
310 310 308 307 309 311 313 316 316 316 316 315 316 316 317 321 321 317 316 314 312 314 315 315 314 314 314 313 314 315 314 313 314 314 314 315 317 318 317 318 318 317 315 314 312 310 312 316 318 317 319 322 323 321 318 320 322 322 317 313 311 312 313 314 313 314 315 313 315 318 315 310 311 318 327 328 329 336 334 333 347 355 353 354 354 352 351 354
311 310 308 308 311 314 316 317 317 316 315 315 316 317 319 320 320 317 315 315 314 314 315 314 314 314 314 314 314 314 314 314 314 314 313 313 314 315 317 319 319 318 317 314 312 311 310 311 316 316 316 320 323 321 321 322 323 323 321 318 313 312 313 314 313 313 314 313 314 317 316 310 310 318 327 329 327 331 335 334 336 344 353 354 350 350 353 355
312 314 313 313 314 316 317 317 316 315 315 316 316 319 320 319 318 316 315 316 314 315 315 314 314 314 313 315 314 314 313 313 314 314 313 314 314 315 318 320 317 317 316 313 313 314 311 311 317 320 319 319 321 322 323 323 320 323 326 319 313 315 315 313 312 313 313 313 314 314 314 315 319 324 328 328 327 329 330 334 336 335 347 354 352 351 355 355
315 318 319 318 318 317 317 316 315 314 315 316 317 319 320 318 316 315 315 315 314 314 314 313 314 312 311 313 315 315 313 312 313 312 312 314 314 316 319 319 317 317 316 314 314 314 312 312 318 322 321 320 321 322 323 320 318 321 320 315 318 323 320 313 312 313 313 313 315 313 313 318 321 325 328 328 329 329 329 330 334 336 340 352 355 353 352 354
317 319 319 319 318 316 315 315 314 315 315 316 318 320 320 317 316 315 315 314 314 314 313 312 313 311 310 311 313 315 313 312 312 312 311 313 313 316 318 318 316 317 315 314 313 315 313 313 318 321 320 320 320 322 322 322 321 319 316 318 322 324 321 317 313 313 314 314 315 313 312 314 313 318 326 330 328 329 331 328 332 335 335 347 355 354 353 354
317 320 321 320 317 315 315 314 314 315 316 318 320 321 320 317 315 314 314 314 314 314 313 311 313 313 312 311 312 314 313 311 312 313 312 312 313 315 317 316 316 315 314 314 313 314 314 311 315 319 319 320 322 321 319 321 323 320 318 322 321 316 316 316 314 314 314 314 314 313 313 314 312 315 324 329 329 330 330 330 329 333 335 340 352 357 355 352
318 321 321 318 316 316 315 314 315 316 318 320 320 320 318 315 314 313 313 313 313 313 312 313 314 313 313 312 312 314 313 311 313 313 311 312 313 315 316 315 316 315 314 314 313 313 314 312 313 317 319 318 319 318 315 316 322 322 321 324 321 317 315 315 315 314 313 314 315 313 313 312 316 323 328 330 331 331 330 333 331 331 336 338 342 351 352 350
321 322 320 317 316 316 315 315 316 317 319 320 320 318 317 315 314 313 312 312 313 312 312 313 314 313 313 313 313 313 313 313 312 312 312 312 313 314 315 314 315 315 313 313 312 312 313 313 312 315 317 316 315 316 315 315 317 318 317 317 318 319 318 317 316 314 312 314 314 315 314 312 320 331 333 332 334 331 331 334 332 330 333 337 338 340 344 352
322 321 318 316 316 315 315 317 317 318 318 318 317 316 316 315 314 313 312 311 312 313 312 312 313 313 312 313 313 313 313 313 313 313 312 313 312 313 314 314 313 314 313 312 312 312 312 313 312 312 312 311 313 317 318 318 318 318 316 316 317 318 316 315 315 314 313 312 313 315 313 314 324 334 333 332 333 332 333 333 333 331 330 335 336 337 341 351
322 321 317 315 316 315 316 316 317 317 317 316 315 314 314 315 313 313 312 312 312 312 312 312 312 312 312 313 313 313 313 313 313 312 312 313 313 313 313 313 312 312 312 311 312 313 314 314 314 313 313 312 315 318 318 319 319 320 318 319 321 319 314 312 313 314 313 312 312 313 312 317 329 336 334 333 334 332 333 333 333 331 331 334 334 335 342 347
321 319 316 315 315 315 316 317 316 315 315 314 315 313 312 314 313 313 313 312 312 312 312 313 312 312 313 313 313 313 313 312 312 312 312 313 314 313 312 312 312 311 312 312 312 313 315 315 315 314 314 315 316 317 317 319 319 317 318 319 320 319 318 316 317 318 315 312 312 312 311 316 329 336 334 334 333 331 331 333 332 333 331 332 333 335 342 345
319 318 316 315 315 315 316 316 316 316 314 314 315 314 313 313 312 313 314 313 313 313 312 313 312 312 312 312 313 312 312 313 313 312 313 313 312 313 313 311 312 311 311 313 314 313 313 315 316 315 316 316 316 315 314 315 317 317 317 319 319 320 321 319 319 321 319 316 314 314 311 315 327 337 334 332 333 332 333 332 331 333 331 332 332 333 340 346
319 320 318 316 315 315 315 314 315 315 314 315 315 314 313 314 313 312 312 313 312 312 311 312 312 311 312 311 312 311 311 312 312 312 312 312 312 312 312 311 311 311 311 314 315 313 312 314 316 318 318 317 315 315 314 314 317 319 319 320 321 320 320 318 317 316 317 318 317 316 314 317 327 337 336 337 335 330 332 332 331 333 333 336 342 341 343 349
320 319 317 316 315 315 314 313 314 315 314 315 315 314 313 313 313 311 311 312 313 312 311 312 311 311 311 311 311 312 312 311 312 312 312 312 312 312 312 312 312 311 313 315 313 312 312 313 314 317 318 317 316 317 318 317 318 319 320 321 322 322 322 321 319 316 318 320 319 321 322 320 326 338 342 346 345 334 334 336 338 343 341 342 351 353 346 345
319 316 316 317 317 316 314 313 313 314 313 314 315 314 312 312 313 312 311 312 312 312 311 312 312 312 312 312 312 312 311 311 313 313 312 312 313 312 312 312 312 312 314 314 312 312 313 312 313 314 315 316 316 317 317 317 317 317 318 319 319 321 322 321 320 320 323 323 320 326 329 321 323 337 345 346 349 347 348 349 348 350 349 349 355 356 351 344
316 315 314 315 316 315 314 313 313 313 313 313 313 313 313 312 312 312 311 311 312 311 311 313 313 312 312 312 312 312 313 313 314 313 314 313 313 313 312 312 311 313 313 312 311 312 313 312 312 311 312 312 313 313 313 313 314 314 316 317 317 318 319 319 321 322 323 323 321 326 330 325 327 339 346 347 349 349 352 353 352 353 351 351 352 354 353 350
315 315 314 314 314 314 313 313 313 313 313 314 313 313 312 312 312 311 311 311 312 311 311 313 313 312 312 312 313 314 314 315 315 315 315 314 314 313 313 312 312 312 312 312 312 312 312 312 312 311 311 311 311 311 312 312 312 312 314 316 316 317 317 318 320 322 323 323 323 326 327 326 333 344 344 346 346 345 350 350 350 352 351 349 349 349 349 350
314 315 316 315 314 314 314 313 314 314 313 314 314 313 312 312 311 311 311 310 312 312 312 313 313 313 312 312 313 314 314 315 315 315 315 314 314 314 313 313 313 312 313 313 313 312 312 313 313 312 312 312 311 311 312 312 313 311 312 314 314 315 316 316 318 320 322 322 324 326 324 326 340 346 341 343 345 344 348 350 350 351 350 348 347 347 348 348
314 314 315 316 314 314 315 313 313 315 314 313 314 313 312 312 311 310 311 310 311 313 312 312 312 312 312 313 313 314 314 313 313 313 313 312 312 313 313 313 312 312 313 314 313 314 313 313 313 312 312 312 312 311 312 312 312 310 311 312 313 314 315 316 318 320 321 322 323 323 321 328 342 345 341 344 345 344 348 351 350 349 347 345 345 345 346 347
314 314 314 316 315 314 314 314 314 315 314 312 313 312 311 312 310 311 312 311 310 311 312 312 312 311 312 313 313 314 313 312 311 311 311 311 311 310 311 311 311 311 312 313 313 314 314 313 314 313 313 313 311 311 312 312 313 312 312 312 313 314 314 315 317 319 321 322 322 321 323 332 341 342 340 343 343 344 348 348 347 346 345 344 343 343 343 343
Wind_Speed
31 31 31 30 29 27 24 21 20 19 19 18 19 19 19 18 16 15 16 17 16 16 17 17 17 17 15 13 12 11 12 12 11 12 15 12 9 9 9 9 10 13 13 12 13 13 14 15 16 17 15 10 8 7 10 9 7 6 5 7 4 2 5 2 1 4 4 1 5 10 8 7 7 7 7 8 7 10 11 7 9 10 13 16 21 30 32 29
31 32 32 31 29 27 24 22 20 19 19 19 20 20 21 20 18 17 17 17 17 16 16 16 17 18 15 11 11 10 11 11 14 16 18 15 11 11 12 13 12 11 14 14 16 17 14 14 15 16 11 8 8 8 9 8 8 7 6 7 3 3 4 2 3 6 6 4 5 8 9 8 7 9 7 8 11 11 10 9 10 13 16 19 24 31 32 30
31 32 32 31 30 27 25 22 20 19 19 20 21 21 22 21 21 19 18 18 18 17 15 15 17 17 14 10 10 10 9 12 14 13 11 13 14 14 13 15 14 11 16 17 17 17 15 14 15 14 10 8 8 9 10 8 8 7 6 6 4 6 3 2 3 6 10 4 3 6 7 5 5 7 8 7 12 12 8 10 12 15 18 21 23 26 30 30
31 32 32 32 30 28 25 23 20 19 19 20 21 22 23 24 23 22 20 18 17 18 15 15 15 14 12 9 10 8 8 11 6 3 4 7 12 12 12 14 13 13 19 19 18 17 16 15 14 13 10 9 9 10 11 8 7 6 7 8 6 5 4 3 5 7 13 5 3 5 4 5 6 6 7 6 8 10 7 10 14 17 20 22 22 23 26 26
31 32 32 32 30 27 25 23 20 20 20 20 21 23 24 25 25 23 20 17 16 16 14 14 13 11 10 9 9 7 8 6 4 8 4 5 8 9 9 14 14 14 19 20 19 18 18 16 12 12 10 8 9 10 10 11 9 6 8 10 11 2 6 8 7 7 13 10 4 5 3 4 2 2 3 3 4 5 3 10 15 18 20 21 22 22 23 23
31 32 32 32 30 27 25 23 20 20 20 20 22 24 25 26 24 21 18 16 14 13 12 12 11 9 8 9 8 6 7 3 6 7 4 4 7 10 7 13 15 16 18 19 18 17 17 15 12 11 9 9 11 11 9 12 10 8 9 10 13 6 7 10 6 6 8 11 7 4 7 6 5 2 3 4 6 2 5 9 16 17 20 22 22 21 21 22
31 32 32 32 30 28 25 22 20 20 20 20 23 25 27 26 21 18 16 14 12 11 10 10 9 9 8 9 7 6 9 6 3 6 9 7 6 8 6 13 16 17 17 19 18 15 15 15 13 10 9 9 11 12 11 12 12 10 10 10 13 9 5 11 11 9 8 9 14 12 9 11 9 6 5 3 7 10 5 6 14 18 19 21 20 21 21 21
31 32 32 32 30 28 25 22 20 20 20 20 23 25 28 25 18 17 15 13 11 9 9 9 10 9 8 8 7 7 8 4 3 4 8 8 3 7 5 12 15 18 18 20 18 15 14 15 14 11 10 10 10 11 12 12 11 12 12 12 12 10 6 7 10 12 7 3 10 12 10 12 7 5 6 3 3 9 6 3 11 19 18 18 19 21 21 20
30 31 32 32 30 28 25 23 20 20 20 20 23 26 28 24 18 17 15 12 10 9 11 11 12 10 8 7 8 7 1 3 4 3 6 5 2 3 7 12 15 18 17 20 18 16 13 12 14 12 11 11 11 11 11 11 9 11 13 12 12 12 10 8 8 8 6 4 4 6 9 16 10 6 6 3 3 7 9 2 8 18 18 17 18 19 19 19
30 31 32 32 30 28 25 23 21 20 19 20 23 25 28 24 18 18 15 10 10 12 14 14 12 9 8 7 8 5 4 6 4 3 5 2 1 4 10 11 16 19 16 18 18 17 14 11 12 11 11 11 11 10 10 10 9 10 10 9 13 13 12 11 9 9 7 7 6 7 7 19 13 7 5 5 6 9 9 3 7 16 16 17 18 17 16 18
30 31 32 32 31 29 26 23 21 21 20 21 23 25 28 24 18 18 14 10 13 15 13 11 9 6 8 8 8 3 6 5 5 4 3 2 3 7 10 11 16 18 16 16 17 17 16 14 12 8 8 8 10 11 11 12 12 13 11 10 12 12 11 13 12 10 7 7 9 8 6 18 16 8 9 10 9 12 10 6 9 14 14 15 17 17 15 15
30 31 31 32 31 29 26 23 21 21 20 21 23 24 26 23 18 17 13 10 14 13 9 8 6 5 8 9 9 4 8 5 4 4 4 4 5 7 8 10 15 17 15 14 15 17 17 16 14 11 9 7 9 9 6 9 12 13 13 12 13 12 11 14 14 12 9 7 9 9 5 11 12 10 14 13 12 14 12 10 12 13 12 13 15 15 14 13
30 30 31 31 31 30 27 24 22 21 21 22 24 25 25 21 17 15 11 10 14 12 7 7 5 6 9 7 4 3 7 5 2 4 5 5 5 7 7 8 13 15 16 14 13 14 15 15 15 14 12 10 9 7 6 6 9 11 11 11 10 10 11 13 15 14 13 10 8 9 6 5 9 14 17 15 15 16 14 13 13 13 12 12 13 13 13 14
30 30 31 31 31 30 28 25 22 22 21 22 24 25 23 19 17 13 10 11 12 10 6 7 6 6 8 6 0 3 4 4 3 4 3 5 6 7 9 9 11 14 15 15 14 11 12 14 15 12 11 12 10 11 11 8 7 9 10 9 8 8 9 12 14 15 15 11 11 10 6 5 8 16 20 17 17 17 15 14 12 12 12 12 13 14 15 15
30 30 30 31 31 31 29 26 23 21 22 23 24 24 21 18 16 13 11 11 11 11 9 9 8 6 8 7 3 1 2 5 4 2 3 5 8 8 9 10 11 12 13 15 13 10 10 12 13 10 9 11 12 12 11 8 7 8 8 8 8 8 9 12 13 15 15 12 15 13 6 5 10 15 19 18 18 18 16 15 14 14 14 14 13 14 14 14
30 30 30 30 31 30 29 27 23 22 23 25 25 22 19 18 17 14 13 12 12 11 8 8 10 11 7 3 5 4 4 2 2 4 4 5 9 8 7 9 9 11 13 12 10 9 10 10 10 9 10 10 10 10 8 7 8 8 8 8 9 10 9 10 12 15 17 13 15 15 8 5 10 14 17 18 18 18 15 15 16 15 14 14 13 13 13 14
30 31 30 30 30 30 30 27 24 23 24 26 25 22 19 18 16 15 15 15 14 11 8 10 11 10 8 5 3 6 1 4 5 3 3 4 8 9 5 8 8 10 12 11 9 9 9 8 7 8 9 9 8 8 7 8 8 7 8 8 10 12 10 9 10 13 17 15 14 15 11 6 8 13 17 18 18 17 15 15 15 14 13 12 12 13 13 15
29 31 30 30 30 30 29 27 24 23 25 26 24 24 23 19 17 17 16 13 10 9 11 13 11 7 5 7 5 1 3 5 3 2 3 3 6 8 6 8 7 9 11 9 9 10 8 7 7 7 8 8 9 9 9 9 9 8 8 7 9 12 13 11 9 11 17 17 14 13 12 9 8 11 15 16 17 16 15 15 14 14 13 9 8 12 13 15
29 30 30 30 30 29 28 27 23 21 25 25 24 26 23 15 12 13 13 9 6 6 5 5 8 5 2 2 2 3 5 5 5 6 5 4 5 8 9 8 7 10 10 7 9 10 8 6 8 8 8 10 12 12 12 12 12 13 9 8 9 9 11 13 11 12 14 16 14 12 11 12 10 11 15 16 15 16 15 15 13 12 11 6 4 8 11 15
29 30 31 30 30 29 28 26 23 20 23 26 28 25 15 7 4 4 6 9 9 8 7 3 5 7 5 1 2 5 6 7 8 6 3 3 5 8 9 8 8 9 9 8 9 10 9 8 9 10 11 13 15 16 16 16 16 17 14 10 10 8 9 12 13 13 11 12 14 14 13 13 10 8 13 16 15 16 15 15 13 12 10 8 7 4 5 11
30 30 31 31 30 29 27 25 22 18 21 25 26 17 6 7 5 4 6 9 10 8 8 6 6 8 5 4 5 6 6 7 6 1 2 3 7 6 7 9 9 8 9 11 9 9 10 10 11 13 14 15 15 16 17 17 17 16 14 10 10 9 9 11 13 12 12 12 11 14 15 13 12 8 8 14 16 16 16 16 14 14 13 11 9 4 3 7
30 31 32 31 30 28 26 24 20 18 20 21 19 9 6 10 7 7 8 9 11 8 7 6 6 6 3 3 3 4 6 6 6 5 3 4 8 6 7 9 9 8 10 12 9 8 10 11 14 15 15 16 16 16 16 17 17 14 11 9 9 8 9 10 12 13 12 10 9 13 14 11 15 15 10 13 14 12 15 17 14 13 11 10 8 6 4 5
30 32 32 31 30 28 26 23 19 18 19 19 14 5 7 8 7 9 8 7 10 9 9 8 7 6 3 2 3 4 8 7 5 6 4 5 7 6 7 8 9 9 11 12 11 9 8 10 15 16 15 16 16 16 16 14 13 12 10 9 8 9 10 7 8 13 9 6 11 13 12 9 13 17 14 14 14 12 15 18 16 13 10 9 9 8 7 7
32 33 31 31 31 27 25 24 20 16 16 18 12 5 9 9 8 10 8 7 8 8 8 6 6 5 1 1 2 6 8 6 3 3 3 6 5 2 7 8 8 10 10 13 15 14 11 9 12 16 16 17 16 16 16 12 9 12 13 12 10 10 12 10 9 11 8 8 13 15 10 8 11 14 16 16 16 15 15 17 16 14 13 11 11 11 10 9
33 33 31 31 29 26 25 22 16 11 12 14 6 6 9 10 8 9 7 6 6 5 6 5 4 3 1 2 5 6 6 5 5 1 1 6 7 4 5 6 7 9 11 15 15 13 13 12 11 14 16 17 17 14 15 12 8 10 12 14 15 14 13 13 13 11 8 8 11 12 11 6 7 12 15 16 17 18 16 17 17 15 14 12 9 12 13 12
34 33 31 30 27 25 21 11 9 13 11 5 5 8 10 10 9 8 5 5 4 6 7 6 5 3 2 4 5 5 6 4 3 1 0 4 6 5 5 4 5 8 10 11 10 8 10 13 13 13 14 16 17 14 14 13 9 8 9 12 16 17 16 15 14 11 7 6 8 11 10 5 5 10 12 16 18 19 19 20 19 16 14 12 9 10 13 14
34 33 31 27 23 21 14 7 12 16 9 6 9 10 10 10 9 6 4 5 4 6 8 7 4 3 3 3 4 6 4 2 3 4 4 1 3 4 5 6 6 7 8 6 6 6 9 14 14 14 14 13 13 12 13 14 11 8 9 11 13 14 15 16 14 11 8 8 9 11 10 7 7 10 10 17 21 19 20 21 19 16 15 15 13 13 13 13
34 33 29 24 17 12 13 13 14 13 8 11 11 10 10 9 7 5 5 4 2 5 5 5 4 3 4 2 6 7 4 1 4 5 5 2 4 5 6 8 8 8 8 7 7 6 7 12 14 14 13 10 9 11 12 14 12 9 11 14 11 9 11 12 12 10 10 9 9 10 10 7 6 8 11 14 19 21 22 23 21 18 18 17 15 15 16 17
34 32 26 21 13 7 11 12 12 12 11 13 12 11 11 10 8 4 5 3 3 4 1 3 3 5 6 5 6 5 3 4 4 3 4 6 6 6 7 7 9 11 10 9 9 8 6 7 10 13 12 9 10 11 11 13 12 9 11 14 12 10 10 8 8 8 10 10 9 11 10 8 7 7 10 11 14 17 20 21 20 20 20 17 16 18 18 17
33 30 22 18 13 7 8 11 12 12 11 12 13 13 13 10 6 5 5 2 4 4 2 3 4 5 6 8 7 5 4 4 2 1 5 6 7 7 7 7 8 9 9 9 10 11 11 9 8 9 10 11 11 11 12 13 10 7 10 12 11 11 8 5 6 6 8 10 11 14 14 10 9 7 7 9 11 13 15 18 19 23 23 21 18 20 19 17
32 28 19 14 12 11 11 7 6 9 10 12 14 13 11 6 4 6 3 1 3 3 4 5 3 3 5 7 5 4 3 4 1 4 6 5 7 8 7 7 6 6 7 8 9 11 14 12 9 7 7 11 12 10 11 12 10 8 9 9 8 8 7 5 6 7 7 8 9 14 17 15 11 7 8 8 9 13 13 15 23 28 27 23 21 21 20 20
30 25 16 10 10 11 12 9 10 12 10 12 12 9 7 4 6 6 3 2 2 1 2 4 3 1 0 5 4 3 1 3 1 4 5 4 6 6 6 4 1 4 6 5 7 9 12 12 11 10 8 10 12 9 9 10 10 11 10 9 8 7 6 7 7 7 8 9 9 12 15 14 11 9 12 12 9 11 12 10 19 29 29 24 24 23 20 20
27 21 13 9 9 11 13 11 12 11 10 12 10 6 5 5 4 6 5 1 2 3 2 3 3 1 2 4 2 3 1 2 1 3 3 4 5 3 4 1 5 5 4 5 7 6 8 11 13 13 9 10 12 9 7 8 8 10 10 8 8 7 7 8 8 7 8 9 12 15 13 11 9 9 14 17 14 10 12 13 14 22 28 27 26 24 22 21
23 14 10 7 11 14 13 11 9 10 11 10 7 5 6 5 4 6 5 4 6 3 1 2 2 3 5 4 3 3 4 1 3 4 3 3 6 3 4 3 5 5 6 6 7 6 7 7 10 12 10 11 14 12 10 9 8 11 11 9 9 8 7 7 6 7 8 8 12 15 12 9 7 6 11 17 18 13 11 15 14 14 20 26 26 23 23 23
19 10 9 10 14 15 13 12 9 8 9 6 5 5 5 4 2 5 5 5 5 4 3 2 4 6 7 4 3 1 4 1 3 4 5 5 5 0 4 7 8 6 6 4 4 6 10 6 1 5 8 10 14 14 12 12 9 9 10 10 9 8 8 7 8 10 9 8 9 10 9 8 7 7 10 13 16 17 15 13 12 14 16 21 24 23 22 21
18 11 9 10 10 7 7 9 7 6 7 5 5 4 3 2 4 5 6 7 6 6 7 5 5 7 5 6 5 4 2 2 1 2 4 6 4 3 8 8 8 8 7 5 5 6 7 7 7 7 8 9 10 11 12 13 9 6 9 10 9 10 10 8 10 12 12 10 7 7 8 8 7 8 11 13 14 18 19 16 13 15 18 20 22 22 21 20
17 13 10 7 5 7 5 5 5 6 6 5 4 4 3 3 7 7 8 9 5 4 8 7 2 3 3 3 6 8 4 4 3 2 3 3 2 4 7 8 7 8 9 7 5 6 7 9 11 12 10 9 8 7 9 12 11 8 8 8 9 12 11 8 7 8 10 10 7 8 11 10 9 7 9 15 15 14 17 18 17 15 16 19 21 22 22 21
15 13 11 6 5 8 5 3 4 6 4 5 5 5 4 3 8 8 8 8 7 5 7 6 2 3 5 3 4 8 3 2 2 0 3 2 3 6 6 6 8 9 9 9 5 5 8 8 10 12 11 7 3 6 10 10 12 12 11 10 8 9 9 8 7 7 9 9 7 10 13 11 9 7 8 14 15 12 13 18 19 16 11 14 17 22 24 22
13 9 5 2 5 7 4 3 6 5 4 5 3 2 3 4 10 10 10 8 6 5 6 6 5 0 3 6 5 6 2 3 4 3 2 0 2 6 7 5 5 8 9 10 6 6 8 7 8 11 12 11 5 6 7 8 10 12 13 13 10 7 7 8 8 7 8 8 7 10 11 9 8 7 9 12 15 14 14 14 18 17 12 12 14 18 22 19
11 6 1 6 8 6 3 5 6 5 4 4 3 2 3 6 9 9 9 8 6 4 4 7 6 2 3 6 5 1 1 2 4 5 3 3 0 5 8 6 5 7 9 8 7 6 6 6 7 10 12 11 7 5 7 8 9 10 11 11 10 8 7 7 8 9 8 7 7 8 8 7 7 9 10 9 13 17 16 12 12 16 16 15 15 15 16 17
9 4 4 8 7 3 5 8 6 4 2 2 2 5 7 6 6 8 7 4 5 4 5 6 6 4 6 5 3 3 2 2 3 4 3 3 2 2 8 9 7 8 8 6 6 5 4 5 7 9 9 8 9 9 10 10 10 10 10 10 10 10 9 8 8 9 10 8 7 8 8 7 6 5 9 11 12 16 15 11 10 13 16 16 16 14 12 15
7 2 5 8 5 4 7 6 3 1 3 4 4 7 7 5 6 7 5 3 4 3 2 5 4 2 5 5 5 7 6 4 5 4 3 3 4 7 7 8 7 6 7 6 6 7 7 5 7 9 9 10 14 15 15 15 15 15 12 11 13 11 9 8 7 8 10 10 10 9 8 8 6 5 8 11 13 12 11 11 11 13 15 15 16 15 12 11
3 3 5 7 5 8 7 2 1 2 5 3 4 8 6 5 7 6 2 5 4 1 2 4 3 4 5 6 6 8 8 5 6 5 5 5 6 10 8 9 8 6 5 5 5 7 7 4 7 9 9 11 16 18 18 17 15 13 11 12 14 11 8 9 8 8 9 10 11 9 8 10 7 7 11 7 4 7 9 11 11 11 11 13 15 15 13 10
6 5 3 6 9 10 4 3 3 4 6 4 4 6 4 6 11 11 8 8 7 6 5 5 6 5 5 5 6 7 8 5 4 5 6 6 2 5 8 10 10 8 5 5 6 6 5 4 5 7 7 8 10 12 12 12 11 10 10 12 16 17 14 13 11 8 8 11 12 9 7 9 6 5 8 6 3 5 4 6 10 11 10 11 12 12 13 13
5 5 1 6 10 7 5 7 6 5 5 4 4 4 3 5 8 9 11 9 8 9 7 4 6 7 6 6 5 6 6 5 5 6 6 7 6 6 9 11 10 9 6 6 9 7 6 5 5 7 7 7 7 4 4 6 7 7 10 14 16 17 15 13 10 8 8 10 14 9 6 9 8 3 8 9 7 6 5 2 7 8 6 6 4 4 7 11
3 2 2 4 5 6 7 8 8 5 4 2 3 6 7 5 7 7 7 8 7 8 8 5 5 5 4 6 6 4 5 5 5 6 6 7 8 7 11 13 12 12 12 10 8 6 6 6 8 10 10 10 10 8 9 10 10 9 11 15 15 14 14 12 8 8 7 6 9 9 8 11 8 3 10 14 9 5 6 6 6 6 5 5 8 8 6 5
3 4 5 4 3 5 6 6 8 7 5 4 2 4 5 4 5 6 4 5 6 6 7 5 6 5 4 6 6 4 6 6 6 8 8 8 8 9 10 9 8 11 14 12 7 5 6 8 11 15 16 17 17 18 17 14 13 14 14 17 17 15 17 14 9 10 9 7 8 11 12 13 9 3 10 15 16 9 8 13 14 15 13 11 13 16 13 3
4 3 4 4 4 5 6 5 6 7 7 7 5 4 5 5 5 5 4 3 4 5 4 3 4 5 5 7 7 6 7 7 6 7 7 7 8 9 10 9 9 10 10 10 8 7 7 9 12 16 18 19 20 20 20 17 15 17 17 18 19 17 17 15 13 14 11 8 10 14 17 19 12 4 11 12 15 14 15 17 16 16 16 15 15 18 19 13
5 3 4 4 3 4 5 4 5 7 8 7 5 5 6 5 5 6 5 3 3 4 3 3 4 6 7 7 6 6 6 7 6 6 6 7 8 7 7 7 8 8 7 8 8 6 7 9 13 16 17 19 20 19 20 20 18 18 19 18 18 18 18 17 16 16 15 14 16 17 20 21 11 5 9 9 10 12 14 14 15 17 16 16 16 16 18 18
5 4 5 4 5 5 5 5 5 4 6 4 4 5 5 5 6 7 6 5 4 3 3 5 6 7 8 8 7 7 7 8 9 8 7 8 8 7 6 6 6 6 6 6 6 4 5 9 13 13 13 16 18 18 20 21 19 19 19 18 17 18 19 18 17 16 14 16 18 19 20 15 4 6 7 7 8 10 12 11 11 14 15 16 17 16 16 17
6 5 6 4 5 3 4 5 4 3 4 5 4 5 4 4 6 6 5 4 4 4 4 6 8 7 6 7 8 8 7 8 10 10 10 9 9 8 7 6 7 7 4 4 5 3 3 8 11 10 10 11 15 17 18 19 19 20 20 19 18 18 17 16 15 14 14 15 17 18 16 7 4 7 9 9 8 8 10 10 8 9 12 15 15 15 16 16
6 4 5 5 2 1 3 4 4 3 3 4 4 4 5 5 5 5 4 3 2 3 5 6 8 7 6 7 8 8 8 9 11 11 11 11 12 12 10 11 13 12 8 7 6 5 4 6 8 9 9 10 14 16 15 16 16 15 15 16 18 18 18 18 17 18 18 15 13 13 7 3 8 9 10 11 9 7 8 8 8 8 10 12 14 14 15 15
Wind_Direction
7 5 3 2 0 358 356 354 352 349 346 345 345 344 343 341 335 330 327 326 327 325 326 328 327 328 328 323 320 322 319 303 283 252 237 245 247 249 242 221 232 236 225 213 220 216 197 206 209 209 214 215 225 231 237 233 223 236 242 253 275 300 278 296 252 273 309 306 161 142 165 207 162 146 135 127 137 144 144 139 137 141 137 135 138 141 146 151
5 4 2 1 358 356 355 353 350 347 345 343 343 342 341 339 334 328 324 323 323 324 323 323 323 325 325 321 319 325 320 291 269 259 244 243 252 259 255 241 247 238 211 212 221 214 201 202 203 207 212 218 218 218 232 224 211 225 247 257 223 203 244 155 188 261 271 232 169 145 173 205 162 144 151 150 158 153 142 140 132 129 130 133 141 145 149 154
4 2 1 359 356 355 353 351 349 347 344 342 341 341 339 337 334 329 323 319 317 320 320 318 320 319 319 318 321 328 317 289 267 257 234 226 240 259 262 243 243 232 207 211 220 214 209 207 201 204 213 224 221 214 221 214 208 217 239 262 220 198 227 100 119 268 270 268 143 170 179 196 198 166 158 166 155 145 146 149 136 131 134 139 146 149 151 155
3 1 360 358 356 354 352 350 348 345 343 340 340 340 338 335 332 328 323 316 314 317 317 316 316 314 316 314 326 333 298 284 267 147 138 209 235 260 260 237 235 223 208 217 230 229 222 213 205 207 216 228 227 221 223 221 209 210 225 248 244 174 163 162 147 246 252 236 149 166 179 186 196 171 152 183 157 136 154 153 140 140 142 143 149 153 155 157
1 1 360 358 355 353 351 349 347 345 342 340 340 339 337 335 333 329 321 315 313 315 315 313 312 310 310 311 330 327 283 279 99 101 107 229 249 286 263 226 225 214 209 222 238 248 236 220 211 209 220 234 232 224 222 225 221 232 240 256 274 210 152 181 168 236 224 185 129 102 179 217 169 96 103 161 128 97 165 152 140 142 144 147 152 156 159 160
0 360 359 357 356 353 351 349 346 344 341 339 339 338 337 336 335 332 324 319 316 316 315 310 309 308 308 317 325 296 269 297 84 86 24 293 268 298 261 214 213 204 208 222 235 249 237 220 215 211 219 234 240 238 223 222 224 243 251 253 264 248 177 167 140 263 226 147 131 161 193 165 116 122 73 86 113 156 235 155 139 140 144 152 154 159 164 162
360 359 359 357 355 354 352 349 346 343 340 339 339 339 338 338 337 335 331 325 322 320 314 309 311 309 311 318 307 253 249 274 75 75 12 344 276 296 248 209 205 196 206 219 225 239 231 217 216 215 222 229 240 246 241 232 224 235 254 255 261 271 210 155 145 216 235 149 158 189 188 138 130 150 140 158 152 167 198 138 142 142 144 154 159 163 167 164
358 358 358 357 355 353 351 349 346 342 339 337 338 339 339 338 336 335 333 328 327 322 314 315 314 309 314 314 287 250 239 262 56 55 7 14 322 303 225 195 198 194 205 214 218 230 228 219 218 219 224 231 240 242 248 246 231 231 248 257 261 277 259 183 181 200 215 206 176 183 165 129 131 134 135 189 124 132 125 100 148 143 146 159 164 168 169 168
357 356 357 356 354 352 350 348 345 341 337 334 336 338 338 337 332 332 331 328 327 318 315 310 304 305 305 293 273 269 234 54 27 8 3 22 344 286 185 180 189 193 205 212 218 230 226 220 221 225 233 241 248 246 249 248 239 234 238 249 251 257 258 241 244 224 198 221 228 210 143 115 128 138 121 129 68 109 115 106 157 147 154 163 167 171 169 171
355 354 355 356 354 352 349 346 343 340 335 330 333 336 337 335 329 330 327 323 322 317 315 305 302 301 277 266 262 268 56 37 339 346 352 319 155 175 185 184 183 190 204 209 218 230 229 225 224 230 245 256 264 266 263 255 257 257 251 254 250 250 256 255 255 249 229 205 215 249 125 120 156 174 121 138 128 125 127 167 172 154 161 163 165 169 173 177
353 352 353 354 353 351 348 344 341 338 333 328 329 333 335 332 325 327 322 314 319 319 316 305 305 288 261 265 261 285 30 359 308 328 333 252 176 186 194 180 180 193 204 207 218 230 231 232 234 237 240 251 266 271 271 267 268 271 274 270 254 250 254 258 255 246 243 212 200 229 131 135 169 170 137 152 144 139 151 179 164 156 162 163 164 167 178 178
352 351 350 351 352 349 346 343 339 336 333 326 326 330 333 328 323 324 315 308 319 321 316 310 314 277 270 268 252 311 2 327 304 314 280 239 207 196 198 180 185 201 208 214 221 228 235 235 239 244 239 242 253 261 285 283 271 264 265 267 262 258 252 246 246 240 237 226 195 200 172 150 161 140 140 158 155 149 159 168 159 159 161 162 166 168 179 177
351 350 348 348 349 348 345 341 337 335 332 326 323 328 331 326 322 320 308 305 318 321 311 312 312 261 270 276 241 334 338 310 311 300 254 242 226 196 212 202 194 208 218 231 233 227 235 239 244 250 252 257 255 265 307 293 270 263 255 256 261 260 252 237 231 228 229 230 201 194 207 179 148 140 151 164 160 154 158 165 163 165 163 169 174 170 177 181
349 348 346 345 346 346 343 339 335 332 331 326 321 325 328 323 319 315 300 298 313 318 311 307 296 253 263 270 126 21 331 270 231 242 230 240 239 203 211 216 209 216 224 238 248 241 236 239 249 256 256 260 269 278 284 274 257 261 254 245 247 251 251 237 222 215 219 220 204 207 225 202 160 149 156 162 159 156 161 166 166 168 168 173 178 174 178 181
346 346 345 344 343 343 342 337 332 328 329 326 320 323 324 317 315 308 290 292 303 308 314 299 265 236 264 252 188 85 262 221 222 279 285 250 239 211 200 211 215 218 224 235 249 263 251 239 241 249 253 254 264 272 274 276 258 246 247 240 232 238 249 245 226 210 212 212 201 210 232 199 168 152 155 161 161 158 163 166 165 172 176 176 179 179 177 178
344 344 343 342 340 339 339 336 329 324 325 324 321 322 320 312 306 297 285 284 295 305 310 280 235 221 267 309 146 194 229 236 321 312 274 251 245 231 195 201 211 212 219 228 240 261 259 246 238 240 250 248 248 253 257 266 253 230 232 241 236 231 236 242 236 214 206 209 201 204 228 208 166 159 159 162 164 162 165 169 169 175 181 179 178 182 177 177
343 342 342 340 339 337 336 335 328 322 321 322 322 321 317 309 296 287 281 278 289 290 262 262 259 236 255 303 216 207 276 354 341 298 245 240 250 254 207 192 207 204 209 219 225 241 245 235 233 234 240 244 239 238 242 245 243 227 219 236 249 245 242 233 235 220 198 202 205 198 219 225 163 162 162 162 166 165 166 171 174 177 181 181 182 185 180 177
343 341 341 338 338 335 333 333 328 322 319 318 319 319 317 307 291 284 278 277 283 261 244 254 269 267 242 270 274 231 4 338 323 288 252 221 236 256 237 204 204 194 200 213 213 225 232 215 221 229 223 230 233 225 226 231 238 236 215 222 242 245 253 242 238 230 194 194 209 198 208 219 180 164 164 167 169 166 170 173 174 177 179 182 185 187 182 181
341 340 341 338 337 334 332 330 326 322 319 316 319 322 316 301 283 270 257 248 232 242 269 223 223 276 298 256 318 352 327 298 264 255 245 218 213 234 234 220 208 196 198 204 196 205 218 210 216 228 222 217 221 223 230 239 250 260 251 242 241 234 246 243 245 245 197 185 207 207 208 212 201 185 169 169 171 168 172 171 174 178 176 176 191 198 190 185
340 340 340 337 336 334 331 327 323 320 314 313 320 322 316 300 279 245 242 244 240 259 299 262 232 291 303 270 341 322 281 245 244 253 233 208 206 217 222 215 207 201 206 208 193 195 210 221 217 220 226 223 223 226 237 249 256 270 279 276 266 252 246 240 240 244 213 192 200 201 212 207 193 186 170 168 173 172 169 169 178 180 176 182 192 212 212 198
340 340 340 338 335 333 330 325 321 312 305 309 312 312 340 4 345 345 337 292 267 263 272 284 292 288 295 317 327 321 278 229 227 226 107 205 211 209 197 199 210 203 209 218 205 193 207 228 226 222 229 231 233 229 234 250 256 264 275 281 279 271 263 251 241 234 226 233 215 193 210 203 162 152 176 180 181 177 172 174 180 179 179 182 179 189 233 232
341 341 340 336 333 333 329 323 316 303 298 299 291 284 4 5 336 324 329 300 286 271 247 262 272 257 276 293 273 282 275 254 223 174 129 213 219 212 180 191 221 212 205 218 215 200 206 229 233 228 230 232 240 240 231 240 250 259 263 264 267 270 277 269 254 243 227 243 243 205 210 199 158 154 181 195 190 184 178 176 174 169 176 176 164 173 192 250
342 342 338 335 332 330 325 319 310 297 292 288 280 304 1 346 326 319 307 284 288 261 225 229 245 237 225 226 188 225 264 272 224 154 127 237 237 229 204 202 225 225 213 212 214 216 212 225 231 232 236 232 234 242 240 236 240 249 253 257 254 255 271 270 252 254 240 241 259 239 222 205 172 160 169 189 192 185 176 175 173 166 174 185 174 171 175 217
343 341 338 334 330 325 322 317 302 278 262 264 274 10 2 331 330 324 302 275 280 248 213 217 237 236 254 300 224 239 272 296 266 118 124 251 276 282 232 230 234 231 226 218 220 230 233 226 220 222 232 237 234 233 239 241 236 236 239 249 256 251 259 266 266 269 261 246 259 266 252 213 192 182 180 185 186 180 173 173 174 172 178 186 185 181 173 200
342 340 337 333 328 322 319 313 297 276 255 253 273 22 351 337 342 326 305 273 258 212 183 186 213 219 313 270 228 245 285 276 258 34 85 274 308 313 250 251 249 239 233 227 226 234 240 238 226 217 219 230 238 233 230 235 242 241 232 237 254 264 266 268 275 277 267 241 237 253 260 224 205 212 195 182 183 178 173 179 177 174 181 181 186 187 173 188
341 340 337 332 328 323 318 311 315 313 297 293 8 0 339 348 345 320 294 264 238 165 160 178 188 176 185 209 208 255 276 223 197 107 214 287 300 289 273 252 232 242 248 241 238 239 236 238 238 232 223 221 230 235 230 231 241 246 237 228 237 254 266 270 276 277 267 263 238 235 247 235 231 241 204 175 184 181 170 180 179 171 179 178 184 191 177 186
340 340 337 330 328 329 321 316 323 313 308 5 6 337 334 350 339 310 265 256 219 156 161 164 155 157 162 168 216 264 292 121 161 192 184 305 296 264 265 253 232 239 253 255 252 240 224 231 236 235 236 229 226 230 225 229 238 240 250 251 235 235 248 256 266 271 267 277 268 247 244 234 225 250 223 178 180 181 169 176 178 173 182 179 182 191 184 189
339 340 337 328 323 316 292 292 306 304 327 357 341 324 332 334 318 284 261 275 157 154 161 131 111 174 183 203 241 263 315 289 227 182 165 265 265 240 246 254 269 274 264 253 248 239 213 222 232 232 237 238 232 235 225 225 239 242 247 260 264 251 247 248 249 255 261 267 265 250 245 246 226 231 234 199 183 181 175 176 175 177 189 183 180 188 187 190
339 340 338 326 313 277 262 271 284 292 323 338 323 319 318 303 295 263 260 284 154 154 139 121 137 183 208 228 216 240 285 239 232 138 183 238 224 229 262 273 294 299 287 272 262 260 238 222 233 233 234 236 233 242 240 230 236 245 249 259 272 269 261 266 257 247 254 253 252 249 241 250 250 221 222 222 204 186 178 179 175 174 189 188 180 187 189 190
338 338 338 323 307 300 278 252 254 281 312 324 318 314 301 287 276 243 243 246 153 141 139 154 138 159 214 231 190 188 253 228 260 238 217 230 199 210 260 272 284 292 285 278 271 271 280 287 271 245 241 245 235 232 242 247 247 243 248 254 262 262 257 276 279 262 254 247 240 245 244 245 256 240 219 221 219 207 190 182 173 170 181 187 184 187 189 190
336 336 332 308 296 312 305 266 272 307 314 317 315 304 287 267 244 252 253 116 122 151 172 152 111 162 220 257 205 168 222 191 230 258 223 211 196 200 233 230 232 255 259 260 257 258 264 269 268 256 250 256 252 234 230 243 249 239 242 246 246 251 246 237 250 253 253 252 240 237 240 242 244 245 245 231 210 216 215 187 169 169 178 181 181 187 189 190
335 333 318 279 274 291 284 294 333 329 316 314 310 295 278 243 225 243 238 192 179 178 161 109 77 142 201 278 235 132 219 179 122 275 257 242 215 199 216 216 206 246 240 243 240 235 238 240 242 244 235 238 250 246 224 224 229 229 233 237 234 233 234 227 226 233 240 246 246 237 233 239 242 239 247 253 223 206 227 217 173 171 177 178 179 185 186 187
334 329 302 254 254 267 267 289 316 316 312 309 296 277 269 256 241 259 265 241 78 52 43 84 80 39 353 280 222 96 270 220 93 294 283 281 269 201 174 68 357 283 266 310 288 248 224 217 219 230 222 210 227 237 226 215 216 228 228 222 227 225 223 229 224 230 244 244 241 237 233 236 243 232 231 246 250 214 210 229 203 177 174 174 179 183 181 184
332 320 289 259 252 255 262 279 296 302 305 299 282 259 255 254 272 297 314 48 60 37 44 52 353 277 257 271 55 76 253 222 55 306 294 240 255 238 166 86 21 295 284 310 298 281 264 230 203 217 209 191 209 226 242 242 223 225 230 222 227 231 232 240 232 225 237 246 236 228 228 234 235 225 215 227 243 239 221 225 217 185 168 169 176 179 176 182
332 308 278 270 259 252 252 262 278 294 291 283 269 259 254 261 303 322 348 34 21 2 41 26 296 265 232 207 93 98 259 78 95 269 267 230 234 226 95 71 43 353 318 306 309 313 289 284 143 219 222 194 197 206 229 256 255 225 220 223 226 232 243 251 259 261 262 265 249 227 221 226 227 234 224 217 223 227 236 243 215 187 179 170 170 176 176 180
333 312 273 257 264 278 272 270 280 279 271 271 268 259 257 332 7 5 357 354 357 2 344 303 256 254 221 173 156 136 187 254 215 252 257 234 249 43 76 66 30 14 10 336 320 335 297 296 350 335 282 248 222 207 209 227 250 243 220 220 222 233 249 255 260 272 279 277 266 251 237 219 214 227 223 221 220 213 219 236 229 204 191 173 164 172 178 177
330 318 295 268 311 348 323 287 275 256 257 260 264 277 282 2 18 12 359 341 340 351 316 297 222 262 278 175 151 120 128 228 231 270 267 193 202 27 69 73 35 22 19 356 318 338 329 305 313 312 289 263 252 270 257 227 228 249 239 220 212 223 238 254 262 258 260 264 260 261 256 232 215 212 205 214 220 213 205 212 228 227 197 175 165 168 178 182
314 307 298 287 344 347 326 286 256 247 252 254 262 281 280 22 33 14 5 344 329 337 308 303 31 348 316 318 101 92 77 268 96 341 272 158 105 15 23 57 55 43 17 359 332 327 333 308 294 298 303 311 279 271 281 254 228 241 265 266 244 233 228 227 247 251 248 255 252 255 261 253 237 212 196 206 205 212 215 204 216 228 200 178 175 171 179 187
293 281 286 329 352 341 330 263 252 253 257 265 286 304 291 46 52 23 2 351 337 331 312 331 16 28 290 334 15 62 50 328 9 333 276 91 73 35 25 16 32 44 27 1 334 321 323 302 288 294 306 321 308 237 253 260 233 227 252 269 266 267 262 233 227 235 248 258 253 252 253 252 256 245 221 201 181 196 228 217 210 213 193 185 199 190 183 183
289 270 58 28 347 336 307 259 255 260 262 269 296 352 6 38 56 38 12 358 347 343 335 347 356 351 354 352 350 21 122 30 339 298 311 3 76 86 59 35 356 8 19 353 313 300 298 284 281 288 299 307 290 246 242 252 247 224 224 248 258 258 268 267 249 227 228 247 251 255 254 242 248 258 254 223 174 183 212 226 219 212 198 192 210 214 187 169
296 294 31 16 350 321 287 274 256 245 262 318 352 35 27 9 10 29 43 17 345 20 11 323 315 341 343 331 332 345 353 8 323 301 308 296 234 102 58 48 23 357 355 330 292 289 290 277 276 278 282 276 258 260 264 260 273 270 241 238 248 244 239 254 261 237 222 230 241 251 262 259 247 255 270 251 201 180 188 207 223 220 212 202 207 219 194 163
281 307 14 11 2 310 295 286 260 276 31 23 38 51 24 331 349 16 48 32 347 38 17 295 280 3 344 332 347 353 352 322 299 305 288 292 50 66 61 53 36 357 342 315 297 332 339 296 276 273 267 273 277 283 290 295 303 300 280 255 243 237 237 244 252 251 236 224 230 243 254 263 275 328 312 262 219 190 178 189 212 219 219 215 208 209 202 178
308 29 52 44 351 300 296 295 269 49 50 12 34 53 19 344 6 357 13 36 1 319 345 328 346 30 17 4 345 340 350 326 293 305 299 306 50 66 52 36 22 344 336 322 311 350 349 277 259 271 269 277 282 282 288 295 293 282 274 268 253 241 258 272 276 286 271 237 226 228 235 249 273 341 340 321 243 215 192 181 204 219 214 217 216 205 196 188
343 334 53 33 328 302 306 359 12 65 69 32 42 68 62 30 12 348 353 30 12 342 360 6 4 14 7 343 325 336 349 331 303 320 309 298 11 47 19 19 7 329 326 3 10 2 331 287 278 275 265 263 262 260 264 265 265 257 254 263 258 247 253 271 285 298 291 271 255 238 227 239 256 317 308 291 223 238 245 184 200 220 215 208 216 213 195 182
315 286 48 13 338 343 30 8 4 60 75 49 34 27 42 69 47 5 347 2 12 354 350 4 358 354 346 325 318 329 325 310 315 314 303 299 295 309 335 350 348 323 303 353 9 346 291 291 301 275 259 254 244 241 269 272 279 277 266 272 272 262 260 270 282 270 257 274 274 261 243 239 236 294 302 279 225 221 304 335 182 210 223 172 153 254 219 182
318 329 22 18 357 28 40 4 1 39 63 58 33 10 12 47 77 56 350 348 18 350 326 345 352 336 329 321 314 309 299 296 302 286 278 290 288 303 333 341 337 317 300 313 339 321 285 279 277 270 268 270 273 301 324 320 316 304 290 293 295 296 297 294 288 270 268 302 287 271 277 262 247 358 357 339 326 263 293 349 62 44 2 74 61 2 322 195
337 15 13 360 356 30 38 12 7 23 23 18 27 9 15 28 44 58 34 5 10 336 326 2 354 330 341 337 321 306 305 305 299 289 290 298 300 306 313 308 295 292 294 297 292 280 277 266 263 265 267 271 279 291 299 300 296 290 290 293 294 302 306 300 295 295 311 339 301 288 298 279 263 27 28 1 352 358 6 9 29 34 21 32 38 20 1 317
4 30 23 332 324 24 33 4 6 34 31 21 25 356 4 37 28 26 51 16 339 341 356 21 356 329 336 342 329 312 315 314 302 294 293 293 295 296 289 279 274 274 272 271 267 266 268 263 262 262 263 266 271 278 284 285 281 278 279 281 282 288 289 283 281 288 299 305 282 291 302 284 269 23 47 18 356 11 33 22 13 20 23 25 32 32 20 11
2 35 27 340 344 44 41 3 4 46 46 20 29 26 7 22 19 4 7 341 333 14 357 329 352 342 327 333 326 305 307 305 296 300 305 300 299 300 296 290 289 287 276 269 267 266 267 264 264 266 265 264 264 271 279 278 271 268 267 267 271 277 280 279 280 282 286 285 276 279 285 279 278 15 47 44 10 8 33 33 9 3 10 20 27 33 28 20
10 27 7 7 47 34 24 30 11 42 66 27 17 41 17 1 9 359 340 324 332 8 345 325 335 328 317 319 305 287 292 295 297 310 312 303 300 296 293 293 292 299 310 304 289 276 265 260 260 265 267 264 265 269 273 271 266 263 263 263 267 273 274 272 274 278 279 279 279 276 273 271 307 3 359 44 49 21 23 33 20 360 358 13 23 24 24 20
33 21 327 340 59 3 332 41 23 344 59 44 13 25 9 360 16 354 330 345 356 347 344 333 320 311 309 308 296 293 304 302 300 304 300 294 293 291 289 287 279 278 280 273 266 253 258 266 262 258 258 262 263 262 262 265 263 259 258 260 262 265 267 266 266 267 266 266 270 268 264 269 18 9 359 23 46 39 27 26 25 10 360 7 15 17 17 14
37 21 318 313 47 26 327 36 37 357 44 47 13 1 345 350 13 355 336 24 32 332 318 309 306 309 310 307 307 311 315 307 298 298 296 290 285 281 277 274 272 272 266 248 234 209 214 250 259 254 253 258 259 260 264 265 258 250 249 251 253 257 261 261 258 257 258 262 267 261 252 18 21 11 14 16 20 33 34 30 28 18 8 9 11 13 14 10